Location: Caltech
(34.1382°N, 118.1253°W)
Time: 21:52:19
(UTC-07:00)

Hamsat - Visible Passes

Search period start: 30 October 2014 00:00
Search period end: 08 November 2014 23:00
Orbit: 592 x 629 km, 97.6° (Epoch: 30 October)

Date Brightness Start Highest point End Pass type
(mag) Time Alt. Az. Time Alt. Az. Time Alt. Az.
30 Oct ? 06:13:11 10° NNE 06:17:10 39° E 06:21:09 10° SSE visible
30 Oct ? 18:38:44 10° SSW 18:42:24 29° W 18:46:04 10° NW visible
31 Oct ? 06:27:16 10° NNE 06:31:27 61° E 06:35:40 10° S visible
31 Oct ? 18:53:40 10° SW 18:56:44 20° W 18:59:48 10° NW visible
01 Nov ? 06:41:28 10° N 06:45:43 88° W 06:49:59 10° SSW visible
01 Nov ? 19:09:05 10° WSW 19:11:05 13° W 19:13:06 10° WNW visible
03 Nov ? 04:35:51 10° ENE 04:38:05 14° E 04:40:19 10° SE visible
04 Nov ? 04:49:13 10° NE 04:52:25 21° E 04:55:38 10° SE visible
05 Nov ? 05:02:56 10° NE 05:06:43 30° E 05:10:30 10° SSE visible
05 Nov ? 17:28:01 10° SSW 17:31:54 38° W 17:35:48 10° NNW visible
06 Nov ? 05:16:52 10° NNE 05:20:58 45° E 05:25:05 10° S visible
06 Nov ? 17:42:41 10° SSW 17:46:10 25° W 17:49:39 10° NW visible
07 Nov ? 05:30:56 10° NNE 05:35:12 70° E 05:39:28 10° S visible
07 Nov ? 17:57:40 10° SW 18:00:27 17° W 18:03:14 10° NW visible
08 Nov ? 05:45:07 10° N 05:49:23 78° WNW 05:53:41 10° SSW visible
08 Nov ? 18:13:21 10° WSW 18:14:45 11° W 18:16:09 10° WNW visible
